Location: *
(48.4333°N, 5.0333°W)
Time: 12:57:10
(UTC+00:00)

CARTOSAT-1 - Pass Details

Date: 09 April 2020
Orbit: 616 x 619 km, 97.8° (Epoch: 26 May)

Event Time Altitude Azimuth Distance (km) Brightness Sun altitude
Exits shadow 22:16:37 52° 289° (WNW) 773 4.2 -27.2°
Drops below altitude 10° 22:20:23 10° 339° (NNW) 1,997 7.1 -27.6°
Sets 22:22:38 0° 343° (NNW) 2,908 8.1 -27.8°
